Weather History for Hulett, WY

Change the Weather History Date:

Wednesday, August 21, 2013

  Actual Average (KEFC) Record (KEFC)
Temperature  
Mean Temperature 74 °F -  
Max Temperature 87 °F 87 °F 100 °F (1959)
Min Temperature 62 °F 56 °F 39 °F (1951)
Cooling Degree Days 10    
Growing Degree Days 24 (Base 50)    
Moisture  
Dew Point 51 °F    
Average Humidity 46    
Maximum Humidity 68    
Minimum Humidity 29    
Precipitation  
Precipitation 0.00 in - - ()
Sea Level Pressure  
Sea Level Pressure 30.08 in    
Wind  
Wind Speed 4 mph (South)    
Max Wind Speed 13 mph    
Max Gust Speed -    
Visibility 10 miles    
Events      
Averages and records for this station are not official NWS values.
T = Trace of Precipitation, MM = Missing Value Source: NWS Daily Summary

Daily Weather History Graph

Daily Weather History Graph

Search for Another Location

Airport:

Trip Planner

Search our weather history database for the weather conditions in past years. The results will help you decide how hot, cold, wet, or windy it might be!

Date:

Astronomy

Aug. 21, 2013 Rise Set
Actual Time 6:08 AM MDT 7:53 PM MDT
Civil Twilight 5:37 AM MDT 8:24 PM MDT
Nautical Twilight 4:59 AM MDT 9:02 PM MDT
Astronomical Twilight 4:18 AM MDT 9:43 PM MDT
Moon 7:58 PM MDT (8/21) 6:55 AM MDT (8/21)
Length of Visible Light 14h 47m
Length of Day
13h 45m
Full, 99% of the Moon is Illuminated
Aug 21
Full
Aug 28
Last Quarter
Sep 5
New
Sep 12
First Quarter
Sep 19
Full

Hourly Weather History & Observations

Time (MDT) Temp. Heat Index Dew Point Humidity Pressure Visibility Wind Dir Wind Speed Gust Speed Precip Events Conditions
12:15 AM 69.8 °F - 46.4 °F 43% 30.02 in 10.0 mi North - - N/A   Clear
12:35 AM 66.2 °F - 50.0 °F 56% 30.04 in 10.0 mi North 3.5 mph - N/A   Clear
12:55 AM 68.0 °F - 50.0 °F 52% 30.04 in 10.0 mi Calm Calm - N/A   Clear
1:15 AM 68.0 °F - 46.4 °F 46% 30.04 in 10.0 mi North - - N/A   Clear
1:35 AM 69.8 °F - 46.4 °F 43% 30.04 in 10.0 mi North - - N/A   Clear
1:55 AM 68.0 °F - 46.4 °F 46% 30.04 in 10.0 mi Calm Calm - N/A   Clear
2:15 AM 68.0 °F - 48.2 °F 49% 30.03 in 10.0 mi East 5.8 mph - N/A   Clear
2:35 AM 69.8 °F - 46.4 °F 43% 30.03 in 10.0 mi Calm Calm - N/A   Clear
2:55 AM 68.0 °F - 46.4 °F 46% 30.04 in 10.0 mi North - - N/A   Clear
3:15 AM 69.8 °F - 46.4 °F 43% 30.03 in 10.0 mi East 6.9 mph - N/A   Clear
3:35 AM 71.6 °F - 46.4 °F 41% 30.04 in 10.0 mi North - - N/A   Clear
3:55 AM 64.4 °F - 48.2 °F 56% 30.04 in 10.0 mi North - - N/A   Clear
4:15 AM 69.8 °F - 46.4 °F 43% 30.04 in 10.0 mi Calm Calm - N/A   Clear
4:35 AM 68.0 °F - 46.4 °F 46% 30.04 in 10.0 mi Calm Calm - N/A   Clear
4:55 AM 64.4 °F - 48.2 °F 56% 30.04 in 10.0 mi South 4.6 mph - N/A   Clear
5:15 AM 64.4 °F - 48.2 °F 56% 30.04 in 10.0 mi Calm Calm - N/A   Clear
5:35 AM 62.6 °F - 48.2 °F 59% 30.04 in 10.0 mi South 4.6 mph - N/A   Clear
5:55 AM 62.6 °F - 50.0 °F 63% 30.04 in 10.0 mi South 3.5 mph - N/A   Clear
6:15 AM 66.2 °F - 48.2 °F 52% 30.04 in 10.0 mi Calm Calm - N/A   Clear
6:35 AM 64.4 °F - 48.2 °F 56% 30.04 in 10.0 mi Calm Calm - N/A   Clear
6:55 AM 66.2 °F - 50.0 °F 56% 30.04 in 10.0 mi Calm Calm - N/A   Clear
7:15 AM 62.6 °F - 51.8 °F 68% 30.05 in 10.0 mi WSW 3.5 mph - N/A   Clear
7:35 AM 64.4 °F - 53.6 °F 68% 30.05 in 10.0 mi South 3.5 mph - N/A   Clear
7:55 AM 66.2 °F - 55.4 °F 68% 30.06 in 10.0 mi SSE 4.6 mph - N/A   Clear
8:15 AM 68.0 °F - 55.4 °F 64% 30.06 in 10.0 mi Calm Calm - N/A   Clear
8:35 AM 68.0 °F - 57.2 °F 68% 30.07 in 10.0 mi North - - N/A   Clear
8:55 AM 69.8 °F - 55.4 °F 60% 30.07 in 10.0 mi Calm Calm - N/A   Clear
9:15 AM 69.8 °F - 53.6 °F 56% 30.08 in 10.0 mi NW 5.8 mph - N/A   Clear
9:35 AM 69.8 °F - 53.6 °F 56% 30.09 in 10.0 mi Calm Calm - N/A   Clear
9:55 AM 71.6 °F - 53.6 °F 53% 30.09 in 10.0 mi North - - N/A   Clear
10:15 AM 77.0 °F - 55.4 °F 47% 30.10 in 10.0 mi North - - N/A   Clear
10:35 AM 80.6 °F 80.5 °F 55.4 °F 42% 30.10 in 10.0 mi Calm Calm - N/A   Clear
10:55 AM 80.6 °F 80.3 °F 53.6 °F 39% 30.10 in 10.0 mi Calm Calm - N/A   Clear
11:15 AM 80.6 °F 80.5 °F 55.4 °F 42% 30.11 in 10.0 mi Calm Calm - N/A   Clear
11:35 AM 80.6 °F 80.5 °F 55.4 °F 42% 30.11 in 10.0 mi SSW 8.1 mph - N/A   Clear
11:55 AM 82.4 °F 81.4 °F 53.6 °F 37% 30.11 in 10.0 mi North - - N/A   Scattered Clouds
12:15 PM 82.4 °F 81.4 °F 53.6 °F 37% 30.11 in 10.0 mi SSE 9.2 mph - N/A   Scattered Clouds
12:35 PM 82.4 °F 81.4 °F 53.6 °F 37% 30.11 in 10.0 mi SSE 8.1 mph - N/A   Clear
12:55 PM 82.4 °F - 51.8 °F 35% 30.10 in 10.0 mi South 12.7 mph - N/A   Clear
1:15 PM 82.4 °F - 51.8 °F 35% 30.11 in 10.0 mi North - - N/A   Clear
1:35 PM 80.6 °F - 50.0 °F 34% 30.11 in 10.0 mi South 9.2 mph - N/A   Clear
1:55 PM 82.4 °F - 51.8 °F 35% 30.11 in 10.0 mi North - - N/A   Clear
2:15 PM 84.2 °F - 51.8 °F 33% 30.11 in 10.0 mi North - - N/A   Clear
2:35 PM 86.0 °F - 50.0 °F 29% 30.10 in 10.0 mi North - - N/A   Clear
2:55 PM 86.0 °F - 50.0 °F 29% 30.10 in 10.0 mi SSE 3.5 mph - N/A   Clear
3:15 PM 86.0 °F - 51.8 °F 31% 30.09 in 10.0 mi North - - N/A   Clear
3:35 PM 86.0 °F - 51.8 °F 31% 30.09 in 10.0 mi North - - N/A   Clear
3:55 PM 87.8 °F - 51.8 °F 29% 30.08 in 10.0 mi SW 6.9 mph - N/A   Clear
4:15 PM 86.0 °F - 50.0 °F 29% 30.08 in 10.0 mi SSW 3.5 mph - N/A   Clear
4:35 PM 84.2 °F - 50.0 °F 30% 30.08 in 10.0 mi North - - N/A   Clear
4:55 PM 86.0 °F - 50.0 °F 29% 30.08 in 10.0 mi South 8.1 mph - N/A   Clear
5:15 PM 86.0 °F - 51.8 °F 31% 30.08 in 10.0 mi SSW 10.4 mph - N/A   Clear
5:35 PM 86.0 °F - 51.8 °F 31% 30.08 in 10.0 mi South 8.1 mph - N/A   Clear
5:55 PM 84.2 °F - 51.8 °F 33% 30.08 in 10.0 mi North - - N/A   Clear
6:15 PM 82.4 °F - 51.8 °F 35% 30.08 in 10.0 mi North - - N/A   Clear
6:35 PM 80.6 °F 80.3 °F 53.6 °F 39% 30.08 in 10.0 mi North - - N/A   Clear
6:55 PM 78.8 °F - 55.4 °F 44% 30.08 in 10.0 mi SSE 5.8 mph - N/A   Clear
7:15 PM - - - N/A% 30.09 in 10.0 mi SSE 6.9 mph - N/A   Clear
7:35 PM - - - N/A% 30.10 in 10.0 mi South 4.6 mph - N/A   Clear
7:55 PM 77.0 °F - 53.6 °F 44% 30.10 in 10.0 mi South 6.9 mph - N/A   Scattered Clouds
8:15 PM 75.2 °F - 53.6 °F 47% 30.11 in 10.0 mi South 4.6 mph - N/A   Scattered Clouds
8:35 PM 73.4 °F - 53.6 °F 50% 30.12 in 10.0 mi SW 4.6 mph - N/A   Clear
8:55 PM 73.4 °F - 51.8 °F 47% 30.12 in 10.0 mi SSW 6.9 mph - N/A   Clear
9:15 PM - - - N/A% 30.13 in 10.0 mi South 8.1 mph - N/A   Clear
9:35 PM 69.8 °F - 53.6 °F 56% 30.14 in 7.0 mi South 8.1 mph - N/A   Clear
9:55 PM 68.0 °F - 53.6 °F 60% 30.15 in 10.0 mi South 9.2 mph - N/A   Clear
10:15 PM 69.8 °F - 53.6 °F 56% 30.15 in 10.0 mi South 9.2 mph - N/A   Clear
10:35 PM 69.8 °F - 51.8 °F 53% 30.15 in 10.0 mi South 8.1 mph - N/A   Clear
10:55 PM 69.8 °F - 51.8 °F 53% 30.15 in 10.0 mi SSW 8.1 mph - N/A   Clear
11:15 PM 69.8 °F - 51.8 °F 53% 30.15 in 10.0 mi SSW 6.9 mph - N/A   Clear
11:35 PM 69.8 °F - 51.8 °F 53% 30.16 in 10.0 mi SSW 8.1 mph - N/A   Clear
11:55 PM 69.8 °F - 51.8 °F 53% 30.16 in 10.0 mi SW 5.8 mph - N/A   Clear